User: anonymous   Login
Location: ??
(35.4032°N, 139.3073°E)
Time: 13:17:37
(UTC+00:00)
Language:

Sakura Rocket - Orbit

View from above orbital plane
View from above orbital plane
View from above satellite
View from above satellite

Ground track
Ground track

The orbit data is extracted from the following two-line orbital elements,

1 10517U 77118B   24174.15118721  .00003448  00000-0  62950-3 0  9996
2 10517  28.6607 149.4182 0828904 322.7025  31.8659 13.43856546253182
Epoch (UTC): 22 June 2024 03:37:42
Eccentricity: 0.0828904
inclination: 28.6607°
perigee height: 475 km
apogee height: 1714 km
right ascension of ascending node: 149.4182°
argument of perigee: 322.7025°
revolutions per day: 13.43856546
mean anomaly at epoch: 31.8659°
orbit number at epoch: 25318

The dashed part of the orbit path shows where the satellite is in the earth's shadow,  

DLR